Temp
52 52 52 53 53 53 52 51 47 41 44 51 51 57 58 58 56 56 57 53 48 48 48 48 49 49 50 51 52 54 56 56 56 57 56 56 57 58
53 51 51 52 52 52 51 51 50 46 42 50 51 53 55 56 56 54 55 51 50 48 47 46 47 47 48 48 50 51 53 55 55 55 55 55 56 57
51 51 50 50 50 50 50 50 49 48 43 47 51 52 50 50 52 54 54 54 55 49 47 46 45 45 46 46 46 48 49 52 53 53 53 54 54 55
50 50 49 51 48 49 49 47 47 48 45 42 46 47 48 50 50 49 52 54 54 51 47 45 45 45 45 44 45 46 46 47 49 50 50 51 52 52
50 49 49 49 47 48 47 46 47 48 46 44 43 47 47 49 48 49 49 50 53 50 47 45 45 45 45 44 45 45 45 45 45 46 46 47 48 49
50 49 47 46 46 45 46 45 45 44 43 42 42 42 44 46 45 44 44 49 48 52 50 47 46 46 46 45 44 44 45 45 44 44 43 43 43 45
48 48 47 44 42 42 43 43 43 42 41 40 40 40 40 40 38 41 40 43 45 47 48 50 52 53 53 47 49 47 44 44 44 44 43 43 42 43
45 46 46 42 40 37 38 37 38 39 39 38 37 37 39 40 41 39 37 35 35 46 42 43 49 49 52 54 48 44 43 43 43 43 43 43 42 42
43 43 43 45 40 41 40 38 38 37 34 39 37 37 37 40 39 38 37 36 36 42 41 38 46 46 51 54 45 44 43 42 42 42 42 42 41 41
44 44 43 43 43 41 40 39 40 42 42 42 40 39 40 41 40 40 38 37 39 42 44 36 44 44 49 51 46 44 43 42 41 41 41 41 41 41
42 43 42 41 39 35 37 37 37 39 42 39 38 37 37 37 37 38 35 34 34 40 46 41 42 42 45 46 49 46 43 42 41 41 41 41 41 41
40 41 38 37 32 33 35 35 33 36 38 38 40 41 40 41 37 39 37 33 36 35 44 40 40 41 38 46 48 48 52 43 41 41 41 41 41 50
35 36 38 34 31 32 32 35 34 34 35 37 37 39 39 39 40 41 41 39 35 35 41 41 39 40 39 39 44 46 48 51 53 48 40 41 41 45
31 33 35 32 31 32 32 32 31 31 34 34 35 34 35 35 38 40 41 41 41 39 43 42 37 36 36 36 37 44 46 49 49 49 52 45 40 41
32 31 30 30 31 31 31 30 30 32 32 31 31 32 37 37 37 37 38 39 40 41 42 39 35 36 35 35 37 39 40 44 48 48 49 47 41 42
30 31 30 29 29 30 31 31 32 32 31 31 31 32 33 33 34 36 34 34 34 35 38 40 38 35 32 35 38 37 42 38 45 46 48 45 42 43
28 29 30 29 28 29 30 30 31 31 30 31 31 30 30 31 31 33 33 32 30 30 33 37 36 39 38 37 34 38 39 40 44 46 41 39 40 43
27 27 26 26 26 26 26 27 28 28 29 29 30 30 29 30 30 31 32 30 28 30 31 33 32 35 35 37 37 38 40 40 42 44 39 37 38 45
27 26 25 25 25 26 26 26 26 27 28 28 29 29 29 30 29 29 30 30 29 30 31 32 32 32 32 31 39 35 38 39 38 39 37 37 37 43
27 26 25 25 26 26 26 26 26 27 27 27 27 28 28 28 28 28 29 28 29 30 30 31 31 31 31 34 34 36 33 38 36 35 34 39 41 35
26 26 26 26 25 26 26 26 26 26 26 25 26 27 26 28 26 28 29 28 28 29 29 30 31 32 34 35 33 31 34 35 37 35 34 34 35 37
26 25 26 26 25 25 25 25 25 26 26 26 26 27 27 28 26 26 28 27 28 29 30 33 34 34 33 33 31 30 30 32 32 32 33 36 38 34
25 25 25 25 25 25 25 24 24 24 25 25 26 26 26 26 27 28 28 28 28 28 29 30 33 34 32 32 32 32 32 32 32 32 31 32 33 33
MSLP
1028.60 1028.31 1028.11 1027.65 1027.45 1027.26 1026.96 1026.56 1025.84 1024.39 1023.19 1022.98 1022.89 1022.81 1022.59 1022.42 1022.13 1022.02 1021.51 1021.20 1021.45 1021.26 1021.08 1020.76 1020.43 1020.12 1019.77 1019.35 1018.90 1018.52 1018.22 1018.06 1017.99 1017.85 1017.56 1017.42 1017.25 1017.02
1028.27 1028.16 1028.07 1027.70 1027.48 1027.13 1026.80 1026.44 1025.96 1025.24 1024.06 1023.65 1023.02 1022.89 1022.73 1022.39 1021.96 1021.96 1021.24 1020.97 1020.64 1020.59 1020.35 1020.26 1020.10 1019.91 1019.54 1019.14 1018.72 1018.32 1018.00 1017.75 1017.63 1017.56 1017.42 1017.26 1017.05 1016.88
1028.30 1028.06 1027.86 1027.73 1027.34 1026.97 1026.61 1026.21 1025.69 1025.27 1024.32 1023.79 1023.29 1022.69 1022.89 1022.62 1022.04 1021.60 1021.26 1020.71 1020.01 1019.59 1019.62 1019.60 1019.53 1019.47 1019.20 1018.81 1018.48 1018.03 1017.63 1017.37 1017.26 1017.20 1017.19 1017.14 1017.03 1016.80
1027.58 1027.47 1027.28 1027.11 1027.02 1026.76 1026.37 1025.94 1025.53 1025.12 1024.47 1023.43 1023.34 1023.19 1022.86 1022.23 1021.81 1021.50 1020.94 1020.30 1019.77 1019.14 1019.07 1019.03 1018.93 1018.73 1018.54 1018.35 1018.02 1017.67 1017.30 1017.02 1016.91 1016.83 1016.76 1016.79 1016.80 1016.73
1027.03 1026.82 1026.59 1026.50 1026.32 1026.17 1026.05 1025.68 1025.21 1024.69 1024.29 1023.48 1022.92 1022.80 1022.33 1021.91 1021.34 1020.81 1020.45 1019.83 1019.20 1018.77 1018.43 1018.10 1017.96 1017.83 1017.76 1017.51 1017.30 1017.05 1016.73 1016.55 1016.38 1016.39 1016.41 1016.36 1016.42 1016.36
1026.20 1026.18 1026.26 1026.03 1025.87 1025.87 1025.60 1025.46 1025.06 1024.60 1024.10 1023.56 1022.87 1022.33 1021.92 1021.55 1021.33 1020.63 1019.70 1019.18 1018.80 1018.47 1018.07 1017.77 1017.44 1016.94 1016.71 1016.42 1016.36 1016.25 1015.98 1015.83 1015.80 1015.74 1015.84 1015.93 1015.97 1016.02
1025.82 1025.80 1025.33 1025.81 1026.05 1026.11 1026.02 1025.81 1025.17 1024.56 1024.02 1023.35 1022.60 1022.13 1021.72 1021.46 1021.23 1020.90 1020.15 1019.51 1018.83 1018.62 1017.50 1016.58 1016.14 1015.69 1015.19 1015.11 1015.21 1015.33 1015.47 1015.48 1015.50 1015.40 1015.33 1015.45 1015.53 1015.57
1025.56 1025.00 1024.97 1025.31 1025.63 1026.03 1025.83 1025.66 1025.73 1025.08 1024.30 1023.57 1022.78 1021.98 1021.43 1021.28 1021.14 1020.83 1020.47 1020.03 1019.05 1018.78 1017.91 1017.01 1016.11 1015.26 1014.76 1014.54 1014.64 1014.90 1014.97 1015.12 1015.18 1015.11 1014.93 1014.89 1015.09 1015.21
1025.36 1025.04 1024.71 1024.36 1024.95 1024.91 1024.53 1024.53 1024.28 1024.18 1024.24 1023.72 1022.59 1021.76 1021.34 1021.18 1021.03 1020.55 1020.12 1019.71 1018.84 1018.06 1017.59 1016.87 1016.37 1015.16 1014.48 1013.82 1013.94 1014.20 1014.58 1014.68 1014.77 1014.81 1014.52 1014.44 1014.52 1014.78
1025.27 1024.80 1024.44 1024.09 1023.98 1024.31 1024.09 1023.64 1023.35 1022.75 1022.30 1022.12 1021.63 1021.35 1021.31 1021.08 1020.92 1020.52 1019.96 1019.48 1018.65 1017.51 1016.64 1015.89 1015.40 1014.66 1013.85 1013.27 1013.19 1013.33 1013.52 1013.85 1013.94 1014.11 1014.05 1013.83 1014.00 1014.09
1025.34 1024.88 1024.53 1024.30 1024.12 1024.65 1024.28 1023.44 1022.84 1022.04 1021.41 1021.42 1021.36 1021.36 1021.19 1020.91 1020.75 1020.31 1019.33 1018.34 1017.15 1015.82 1015.03 1014.71 1014.54 1014.01 1013.55 1013.05 1012.55 1012.42 1012.48 1012.57 1012.81 1013.00 1013.25 1013.17 1013.27 1013.52
1025.47 1024.77 1024.49 1024.60 1025.12 1024.80 1024.25 1023.31 1022.51 1021.79 1021.29 1020.95 1020.37 1019.77 1019.60 1019.05 1019.09 1018.89 1018.29 1017.45 1016.49 1015.54 1014.79 1014.46 1014.25 1013.58 1012.61 1012.02 1011.75 1011.27 1010.67 1010.93 1011.36 1011.62 1012.00 1012.35 1012.48 1012.57
1025.93 1025.02 1024.42 1024.70 1024.98 1024.52 1024.15 1023.39 1022.42 1022.35 1021.42 1020.78 1020.07 1019.17 1018.76 1018.35 1017.94 1017.61 1017.13 1016.72 1016.23 1015.56 1015.38 1014.86 1013.93 1013.21 1012.83 1011.60 1010.95 1010.62 1010.27 1009.52 1009.33 1009.89 1010.73 1011.27 1011.45 1011.80
1026.35 1025.60 1024.86 1024.74 1024.39 1023.85 1023.43 1022.78 1022.50 1022.10 1021.08 1020.17 1019.24 1018.61 1018.19 1017.96 1017.47 1017.09 1016.78 1016.47 1016.06 1015.35 1014.72 1014.23 1013.11 1012.92 1011.91 1010.76 1009.86 1009.59 1009.38 1009.14 1009.06 1008.79 1008.44 1009.76 1010.49 1011.14
1026.27 1025.74 1025.19 1024.48 1023.78 1023.03 1022.45 1022.25 1021.88 1021.04 1020.29 1019.56 1018.78 1018.13 1017.72 1017.69 1017.45 1017.11 1016.54 1015.90 1015.10 1014.30 1013.75 1013.43 1012.49 1011.33 1010.62 1009.41 1008.73 1008.60 1008.53 1008.24 1008.14 1007.96 1008.00 1008.44 1009.53 1010.20
1026.11 1025.32 1024.57 1024.04 1023.36 1022.72 1022.09 1021.52 1021.01 1020.45 1019.96 1019.36 1018.83 1018.47 1018.36 1017.90 1017.26 1016.64 1015.97 1015.32 1014.42 1013.17 1012.39 1011.33 1010.06 1008.73 1007.87 1007.94 1007.79 1007.51 1007.23 1007.31 1007.17 1007.27 1007.29 1007.82 1008.79 1009.46
1026.27 1024.97 1023.98 1023.39 1022.85 1022.26 1021.80 1021.40 1020.88 1020.34 1019.78 1019.25 1018.77 1018.34 1018.00 1017.41 1016.90 1016.43 1015.81 1014.99 1014.04 1012.85 1011.20 1009.68 1008.46 1006.79 1006.60 1006.84 1006.72 1006.41 1006.39 1006.43 1006.32 1006.37 1006.93 1007.44 1008.18 1008.62
1025.83 1024.78 1024.10 1023.53 1022.95 1022.44 1021.85 1021.28 1020.89 1020.41 1019.87 1019.40 1018.76 1018.25 1017.63 1017.19 1016.68 1016.22 1015.40 1014.78 1013.76 1012.60 1011.18 1009.73 1008.39 1006.83 1006.51 1006.10 1005.97 1005.52 1005.61 1005.86 1005.97 1006.22 1006.95 1006.84 1007.45 1007.79
1025.53 1024.91 1024.33 1023.74 1023.17 1022.52 1021.94 1021.36 1020.86 1020.46 1020.14 1019.49 1018.82 1018.20 1017.64 1017.17 1016.62 1015.96 1015.20 1014.44 1013.49 1012.48 1011.06 1009.89 1008.54 1007.26 1005.94 1005.19 1005.03 1005.55 1005.46 1005.63 1005.98 1006.26 1006.85 1006.67 1007.02 1007.49
1025.64 1025.06 1024.41 1023.81 1023.20 1022.62 1022.00 1021.36 1020.89 1020.44 1019.96 1019.47 1018.92 1018.24 1017.73 1017.17 1016.62 1015.90 1015.15 1014.48 1013.49 1012.35 1011.04 1009.76 1008.46 1007.14 1005.96 1005.05 1004.99 1005.45 1005.66 1005.76 1006.14 1006.50 1006.98 1006.53 1007.26 1007.74
1025.70 1025.13 1024.60 1024.02 1023.44 1022.82 1022.20 1021.61 1020.95 1020.34 1019.89 1019.36 1018.75 1018.16 1017.76 1017.14 1016.65 1015.92 1015.17 1014.58 1013.86 1012.63 1011.35 1010.02 1008.94 1007.37 1005.67 1005.51 1005.33 1005.50 1005.66 1006.02 1006.21 1006.59 1006.78 1006.45 1007.60 1008.51
1026.11 1025.46 1024.74 1024.25 1023.64 1022.99 1022.31 1021.63 1020.87 1020.20 1019.58 1018.98 1018.50 1018.05 1017.58 1017.07 1016.55 1015.97 1015.31 1014.79 1013.99 1013.15 1012.02 1010.84 1009.60 1008.14 1006.85 1006.13 1005.92 1005.90 1006.04 1006.67 1006.81 1006.56 1006.51 1006.83 1007.58 1008.15
1026.44 1025.80 1025.11 1024.35 1023.72 1023.10 1022.46 1021.77 1021.05 1020.32 1019.67 1019.03 1018.47 1017.90 1017.55 1017.02 1016.60 1016.00 1015.57 1015.09 1014.48 1013.61 1012.66 1011.40 1010.29 1009.33 1008.58 1007.74 1007.06 1006.68 1006.59 1006.70 1006.70 1007.08 1008.47 1008.48 1008.37 1008.76
Wind_Speed
7 6 8 7 7 8 9 9 11 14 13 12 12 12 11 12 14 15 15 16 15 20 14 14 16 19 20 20 18 16 13 11 10 10 9 11 12 15
7 9 10 9 10 9 9 9 10 11 14 13 12 14 13 12 14 15 18 17 18 10 16 7 12 18 21 21 19 18 17 14 12 11 10 10 10 12
10 11 12 12 10 10 10 10 10 11 13 12 12 14 17 17 16 15 15 16 15 16 7 8 12 16 17 18 18 18 17 14 13 12 11 10 10 9
13 13 14 10 13 12 10 12 12 13 13 18 14 13 16 17 16 17 14 13 15 17 13 10 15 17 16 14 17 17 14 14 13 12 11 11 10 9
15 16 16 16 14 12 12 12 12 12 14 13 14 13 13 13 15 15 15 15 13 17 15 18 18 12 14 17 18 18 15 12 12 12 12 11 10 10
16 16 17 18 17 15 13 15 14 14 14 13 14 13 13 13 12 13 13 12 12 12 14 14 16 19 20 21 18 17 14 12 11 13 12 11 10 10
18 18 18 17 18 12 10 15 16 14 14 14 14 14 13 12 12 12 13 13 14 14 13 11 11 10 11 13 11 14 4 7 9 12 13 12 11 10
19 19 17 17 14 13 16 18 16 16 17 15 14 16 17 13 12 12 11 12 14 11 12 14 13 12 11 10 10 6 10 11 10 12 13 13 12 11
17 16 15 12 11 16 17 17 21 18 21 18 20 17 17 14 15 16 14 14 15 13 13 12 13 14 13 12 12 13 11 11 12 14 12 14 13 12
16 17 16 17 16 14 16 17 17 18 18 14 16 15 15 14 15 16 18 17 17 15 15 14 12 13 13 12 12 12 14 14 15 16 15 14 15 14
15 15 15 17 18 15 16 18 19 17 15 15 12 18 19 20 19 13 14 14 14 13 12 11 12 13 13 14 13 15 16 18 18 17 17 15 16 15
16 17 15 10 16 17 15 17 17 17 16 16 16 17 18 18 17 15 13 13 13 13 13 12 13 13 14 13 14 11 13 19 22 21 19 17 17 11
14 13 13 17 18 22 20 17 18 17 19 17 16 14 14 14 11 12 13 12 12 13 14 14 15 15 14 17 13 12 12 12 11 14 20 19 19 17
14 12 15 24 27 26 21 23 23 17 13 13 12 12 10 10 10 12 15 15 15 18 18 19 16 16 15 15 16 13 14 14 12 12 11 14 20 22
12 17 24 24 23 17 17 16 16 11 10 10 10 8 8 10 14 13 15 18 18 19 15 20 17 19 15 17 15 14 12 12 13 12 12 12 10 10
15 14 15 16 15 12 11 10 8 9 8 10 10 9 9 10 11 11 12 12 12 13 17 20 20 20 15 15 14 13 13 12 11 13 12 10 9 11
15 11 9 9 10 9 9 9 9 9 9 9 9 9 9 9 9 9 11 11 12 13 15 15 18 8 5 10 10 12 12 11 11 12 8 10 11 12
11 10 10 10 10 10 10 9 9 10 9 10 8 9 8 9 10 10 10 10 12 12 14 13 13 7 4 7 12 10 11 10 9 11 6 6 10 11
9 10 10 10 10 10 10 10 10 9 10 9 9 10 10 10 10 10 10 10 11 12 12 12 11 10 10 6 4 7 6 7 5 6 5 6 6 9
10 10 10 10 10 11 10 10 10 9 9 9 10 9 9 9 9 10 10 11 12 13 12 12 12 13 8 7 4 2 6 5 5 5 3 7 6 17
11 11 11 11 11 11 10 10 11 9 9 9 8 9 8 8 9 10 10 12 14 12 12 13 14 21 5 0 2 1 0 6 5 4 6 10 11 10
11 12 11 11 11 11 11 10 10 10 10 9 8 8 8 9 8 9 8 10 10 11 11 11 13 12 10 8 8 7 8 10 16 23 18 9 9 8
12 12 11 11 10 11 11 11 11 10 10 9 9 8 8 8 9 8 8 8 9 11 12 12 10 9 10 9 11 10 14 11 11 14 13 20 22 21
Wind_Direction
312 302 307 311 312 311 304 300 301 302 302 311 309 307 308 311 308 305 301 308 334 307 296 308 328 326 323 322 320 306 285 277 285 291 298 303 307 320
302 317 307 312 313 304 302 294 293 293 293 305 305 309 304 308 307 315 301 312 289 288 288 304 324 320 316 314 308 304 294 267 264 275 284 283 286 297
298 297 303 302 299 303 302 297 297 299 298 298 295 316 311 296 301 306 302 300 294 286 281 310 313 309 299 306 312 310 293 268 247 250 265 273 272 274
290 294 292 293 301 297 293 299 297 293 296 298 306 304 301 304 301 301 296 298 295 295 301 304 290 284 285 294 298 299 298 277 252 238 242 258 269 268
287 286 290 288 288 293 297 296 298 302 299 297 299 296 296 297 301 301 299 293 286 291 269 255 257 265 285 284 279 278 280 276 264 238 237 233 249 264
286 293 294 284 285 291 300 300 298 299 299 295 296 298 299 304 300 295 297 300 299 296 293 279 273 273 266 264 266 266 263 263 262 253 228 228 226 237
303 295 293 284 287 287 291 292 302 300 300 297 294 297 299 305 306 307 303 305 312 310 299 288 284 283 281 232 251 252 295 322 307 271 242 225 219 224
288 296 312 296 282 278 268 256 273 284 290 290 293 293 291 297 301 301 302 293 289 291 298 310 307 296 286 273 278 329 315 305 301 294 263 232 216 212
304 306 305 304 282 275 289 275 253 255 249 270 280 283 290 297 300 302 296 295 292 293 286 285 287 290 287 281 231 240 246 264 280 282 270 245 218 211
306 306 305 306 308 322 308 300 296 288 290 282 276 274 281 301 303 300 297 288 281 274 270 267 274 277 280 282 276 221 223 240 253 261 262 243 228 208
320 315 318 312 317 341 310 298 294 292 293 290 267 270 269 267 263 282 278 279 280 278 278 284 283 279 280 286 287 272 221 222 235 244 254 241 222 208
314 310 305 327 345 323 309 300 300 297 307 304 301 293 286 281 263 253 272 275 282 285 284 296 290 285 289 277 276 269 258 224 223 231 234 234 208 215
312 312 314 340 323 318 309 300 300 320 303 298 286 281 284 285 282 272 273 280 287 287 287 293 289 285 278 278 274 274 274 262 240 214 219 220 197 209
314 311 312 322 312 306 301 295 301 298 288 285 289 283 280 281 294 301 300 294 285 279 282 278 279 276 274 270 267 257 248 250 252 266 213 197 192 205
312 315 309 305 304 298 300 299 291 281 281 278 287 288 302 308 304 295 291 291 292 290 284 277 266 264 255 255 257 255 251 242 240 240 242 192 182 201
327 316 308 300 293 299 297 300 299 302 298 299 301 306 302 293 288 296 299 298 295 293 296 282 275 262 241 241 250 244 236 231 221 229 230 194 179 197
323 308 316 322 321 320 318 320 315 312 307 300 298 304 294 288 297 299 302 303 296 304 304 310 318 289 250 235 238 239 227 221 224 226 195 189 180 198
311 323 327 327 326 324 321 320 319 316 315 319 311 300 303 308 308 306 304 309 308 312 311 320 323 290 252 249 228 229 210 217 218 225 174 175 170 186
333 332 330 330 326 323 322 320 318 320 318 305 311 307 305 306 307 310 312 316 314 316 314 319 316 328 290 254 171 206 220 178 194 180 189 186 155 160
339 335 330 328 325 323 321 319 319 317 312 313 310 306 305 307 308 305 314 320 325 322 324 324 331 333 311 275 156 202 243 176 175 195 173 165 113 97
338 335 334 333 329 326 324 322 321 310 311 305 305 307 307 309 305 307 311 322 326 331 331 335 335 327 333 79 138 80 166 191 151 161 153 118 122 127
335 334 333 332 327 325 323 320 315 317 320 313 311 308 307 302 307 314 322 327 328 330 336 331 340 347 6 22 57 78 94 97 78 73 62 86 133 142
334 332 330 328 326 326 324 321 317 315 313 313 310 305 305 306 305 308 314 317 326 330 341 338 347 357 8 18 29 44 71 79 74 70 59 64 70 80